Location: Ar Ranvel
(48.3000°N, 4.8833°W)
Time: 21:40:58
(UTC+00:00)

Meteor 2-10 Rocket - Pass Details

Date: 04 November 2021
Orbit: 733 x 885 km, 81.2° (Epoch: 30 November)

Event Time Altitude Azimuth Distance (km) Brightness Sun altitude
Rises 18:05:51 0° 205° (SSW) 3,308 7.3 -12.0°
Reaches altitude 10° 18:08:20 10° 210° (SSW) 2,357 6.6 -12.4°
Maximum altitude 18:13:29 51° 286° (WNW) 972 4.5 -13.3°
Drops below altitude 10° 18:18:29 10° 3° (N) 2,289 5.9 -14.1°
Sets 18:20:52 0° 8° (N) 3,202 6.6 -14.5°
